This demonstration page uses our WeatherBlox Daily Observations layout. Learn more.

Hourly Observations for December 13, 2018

Temp ( °F °C ) Dew Point ( °F °C ) Humidity (%) Winds ( mph kmh ) Pressure ( in mb ) Visibility ( mi km ) Precip ( " mm )
12:15 am 00:15 Clear 35 1.5 32 0 90 90 NW 10 17 29.85 1011 10 16.0934 0 0
12:35 am 00:35 Mostly Cloudy 35 1.6 32 0.1 90 90 NNW 15 24 29.88 1012 10 16.0934 0 0
12:55 am 00:55 Cloudy 37 2.9 34 1 87 87 NNW 21 33 29.88 1012 10 16.0934 0 0
1:15 am 01:15 Cloudy 37 2.7 34 1.1 89 89 NNW 22 35 29.88 1012 10 16.0934 0 0
1:35 am 01:35 Cloudy 37 2.5 34 1.1 91 91 NNW 18 30 29.88 1012 10 16.0934 0 0
1:55 am 01:55 Cloudy 36 2.2 34 1.1 93 93 NNW 20 31 29.88 1012 10 16.0934 0 0
2:15 am 02:15 Cloudy 36 2.2 34 1.3 94 94 NNW 14 22 29.91 1013 10 16.0934 0 0
2:35 am 02:35 Cloudy 36 2.2 34 1.2 93 93 NNW 15 24 29.94 1014 10 16.0934 0 0
2:55 am 02:55 Cloudy 36 2.3 34 1 91 91 NNW 17 28 29.94 1014 10 16.0934 0 0
3:15 am 03:15 Cloudy 36 2.3 34 1 91 91 NNW 15 24 29.94 1014 10 16.0934 0 0
3:35 am 03:35 Cloudy 36 2.2 34 1 92 92 NNW 14 22 29.97 1015 10 16.0934 0 0
3:55 am 03:55 Cloudy 36 2.3 34 1 91 91 NNW 14 22 29.97 1015 10 16.0934 0 0
4:15 am 04:15 Cloudy 36 2.4 33 0.7 89 89 NNW 18 30 29.97 1015 10 16.0934 0 0
4:35 am 04:35 Cloudy 37 2.5 33 0.3 86 86 NNW 18 30 29.97 1015 10 16.0934 0 0
4:55 am 04:55 Cloudy 36 2.2 32 0.2 87 87 NNW 17 28 29.97 1015 10 16.0934 0 0
5:15 am 05:15 Partly Cloudy 36 2.4 32 0 84 84 NNW 21 33 29.97 1015 10 16.0934 0 0
5:35 am 05:35 Partly Cloudy 36 2.2 32 0 86 86 NNW 18 30 30 1016 10 16.0934 0 0
5:55 am 05:55 Mostly Cloudy 37 2.5 32 0 84 84 NNW 20 31 30 1016 10 16.0934 0 0
6:15 am 06:15 Cloudy 37 2.5 32 0 84 84 N 25 41 30 1016 10 16.0934 0 0
6:35 am 06:35 Cloudy 36 2.4 32 0 84 84 N 21 33 30.06 1018 10 16.0934 0 0
6:55 am 06:55 Cloudy 37 2.5 32 0 84 84 N 22 35 30.03 1017 10 16.0934 0 0
7:15 am 07:15 Cloudy 36 2.2 32 0.1 86 86 NNW 18 30 30.09 1019 10 16.0934 0 0
7:35 am 07:35 Cloudy 36 2.2 32 0.2 87 87 NNW 18 30 30.09 1019 10 16.0934 0 0
7:55 am 07:55 Cloudy 36 2.1 32 0.2 87 87 NNW 18 30 30.12 1020 10 16.0934 0 0
8:15 am 08:15 Cloudy 36 2.1 32 0.1 87 87 N 17 28 30.12 1020 10 16.0934 0 0
8:35 am 08:35 Cloudy 36 2.2 32 0 86 86 N 18 30 30.12 1020 10 16.0934 0 0
8:55 am 08:55 Mostly Cloudy 36 2.2 32 0 86 86 N 20 31 30.15 1021 10 16.0934 0 0
9:15 am 09:15 Partly Cloudy 36 2.3 32 0 85 85 NNW 16 26 30.15 1021 10 16.0934 0 0
9:35 am 09:35 Sunny 37 2.5 32 0 84 84 NNW 15 24 30.18 1022 10 16.0934 0 0
9:55 am 09:55 Partly Cloudy 36 2.4 32 0 84 84 NNW 16 26 30.18 1022 10 16.0934 0 0
10:15 am 10:15 Sunny 37 2.6 32 -0.2 82 82 NNW 17 28 30.18 1022 10 16.0934 0 0
10:35 am 10:35 Sunny 37 2.5 31 -0.5 81 81 NNW 17 28 30.18 1022 10 16.0934 0 0
10:55 am 10:55 Sunny 37 2.6 31 -0.5 80 80 NNW 18 30 30.21 1023 10 16.0934 0 0
11:15 am 11:15 Sunny 37 2.9 31 -0.5 79 79 NNW 18 30 30.21 1023 10 16.0934 0 0
11:35 am 11:35 Sunny 37 3 31 -0.7 77 77 NNW 18 30 30.21 1023 10 16.0934 0 0
11:55 am 11:55 Sunny 37 3 30 -0.9 76 76 NNW 18 30 30.21 1023 10 16.0934 0 0
12:15 pm 12:15 Sunny 37 3 30 -1 75 75 NNW 18 30 30.21 1023 10 16.0934 0 0
12:35 pm 12:35 Sunny 38 3.3 29 -1.5 71 71 N 17 28 30.21 1023 10 16.0934 0 0
12:55 pm 12:55 Sunny 38 3.5 29 -1.6 70 70 NNW 17 28 30.21 1023 10 16.0934 0 0
1:15 pm 13:15 Sunny 38 3.6 29 -1.4 70 70 N 16 26 30.21 1023 10 16.0934 0 0
1:35 pm 13:35 Sunny 39 3.7 29 -1.6 69 69 N 15 24 30.21 1023 10 16.0934 0 0
1:55 pm 13:55 Sunny 39 3.7 29 -1.5 69 69 NNW 15 24 30.21 1023 10 16.0934 0 0
2:15 pm 14:15 Sunny 39 3.7 30 -1.1 71 71 N 17 28 30.21 1023 10 16.0934 0 0
2:35 pm 14:35 Sunny 39 3.7 30 -1 72 72 NNW 16 26 30.21 1023 10 16.0934 0 0
2:55 pm 14:55 Sunny 39 3.7 30 -0.9 72 72 NNW 14 22 30.21 1023 10 16.0934 0 0
3:15 pm 15:15 Sunny 39 3.7 31 -0.7 73 73 NNW 15 24 30.21 1023 10 16.0934 0 0
3:35 pm 15:35 Sunny 38 3.6 31 -0.7 74 74 NNW 14 22 30.21 1023 10 16.0934 0 0
3:55 pm 15:55 Sunny 38 3.4 30 -0.9 74 74 NNW 15 24 30.21 1023 10 16.0934 0 0
4:15 pm 16:15 Sunny 38 3.1 30 -1 75 75 NNW 14 22 30.21 1023 10 16.0934 0 0
4:35 pm 16:35 Sunny 37 2.7 30 -1 77 77 N 12 19 30.21 1023 10 16.0934 0 0
4:55 pm 16:55 Sunny 36 2.3 30 -1.2 78 78 NNW 12 19 30.24 1024 10 16.0934 0 0
5:15 pm 17:15 Clear 35 1.5 30 -1 84 84 NNW 9 15 30.24 1024 10 16.0934 0 0
5:35 pm 17:35 Clear 34 1.2 30 -1.1 85 85 NNW 9 15 30.24 1024 10 16.0934 0 0
5:55 pm 17:55 Clear 33 0.8 29 -1.4 85 85 NNW 9 15 30.27 1025 10 16.0934 0 0
6:15 pm 18:15 Clear 33 0.5 29 -1.7 85 85 NNW 8 13 30.3 1026 10 16.0934 0 0
6:35 pm 18:35 Clear 33 0.5 28 -2.2 82 82 NNW 8 13 30.3 1026 10 16.0934 0 0
6:55 pm 18:55 Clear 32 0.2 28 -2.1 85 85 NW 10 17 30.3 1026 10 16.0934 0 0
7:15 pm 19:15 Clear 32 0.1 28 -2.3 84 84 NNW 9 15 30.3 1026 10 16.0934 0 0
7:35 pm 19:35 Clear 31 -0.3 28 -2.5 85 85 NW 8 13 30.3 1026 10 16.0934 0 0
7:55 pm 19:55 Clear 31 -0.8 27 -2.7 87 87 NW 6 9 30.3 1026 10 16.0934 0 0
8:15 pm 20:15 Clear 28 -2.5 26 -3.5 93 93 NW 7 11 30.33 1027 10 16.0934 0 0
8:35 pm 20:35 Clear 27 -2.6 26 -3.5 94 94 NW 8 13 30.33 1027 10 16.0934 0 0
8:55 pm 20:55 Clear 27 -2.6 26 -3.6 93 93 NW 7 11 30.33 1027 10 16.0934 0 0
9:15 pm 21:15 Clear 28 -2.3 26 -3.5 92 92 WNW 9 15 30.33 1027 10 16.0934 0 0
9:35 pm 21:35 Clear 27 -2.6 25 -3.8 92 92 WNW 8 13 30.36 1028 10 16.0934 0 0
9:55 pm 21:55 Clear 27 -2.7 25 -4.1 90 90 NW 9 15 30.36 1028 10 16.0934 0 0
10:15 pm 22:15 Clear 28 -2.4 25 -4 89 89 NW 9 15 30.36 1028 10 16.0934 0 0
10:35 pm 22:35 Clear 27 -3 24 -4.5 90 90 NW 9 15 30.36 1028 10 16.0934 0 0
10:55 pm 22:55 Clear 28 -2.5 24 -4.4 87 87 NW 10 17 30.36 1028 10 16.0934 0 0
11:15 pm 23:15 Clear 28 -2.1 24 -4.5 84 84 NW 9 15 30.36 1028 10 16.0934 0 0
11:35 pm 23:35 Clear 28 -2.5 23 -5 83 83 NNW 6 9 30.36 1028 10 16.0934 0 0
11:55 pm 23:55 Clear 26 -3.6 22 -5.3 88 88 WNW 6 9 30.39 1029 10 16.0934 0 0

Powered by AerisWeather